timestamp,wind_dir_avg,wind_spd_avg,wind_spd_max_dir,wind_spd_gust,battery_voltage,lat,long
2022-12-11 00:04:00+00:00,10.0,10.61,18.0,12.17,12.41,47.59359,-54.27349
2022-12-11 00:14:01+00:00,8.0,9.16,16.0,10.71,12.41,47.59359,-54.27349
2022-12-11 00:24:01+00:00,2.0,9.6,2.0,11.26,12.41,47.59359,-54.27349
2022-12-11 00:34:01+00:00,10.0,8.69,20.0,10.91,12.41,47.59359,-54.27349
2022-12-11 00:44:01+00:00,10.0,9.22,14.0,10.61,12.41,47.59359,-54.27349
2022-12-11 00:54:01+00:00,2.0,9.61,15.0,11.57,12.41,47.59359,-54.27349
2022-12-11 01:04:01+00:00,14.0,10.49,33.0,14.35,12.41,47.59359,-54.27349
2022-12-11 01:14:00+00:00,5.0,8.22,17.0,9.75,12.41,47.59359,-54.27349
2022-12-11 01:24:00+00:00,8.0,10.05,12.0,11.86,12.41,47.59359,-54.27349
2022-12-11 01:34:00+00:00,8.0,10.58,15.0,13.03,12.41,47.59359,-54.27349
2022-12-11 01:44:00+00:00,12.0,10.78,12.0,12.81,12.41,47.59359,-54.27349
2022-12-11 01:54:00+00:00,16.0,10.8,18.0,12.22,12.41,47.59359,-54.27349
2022-12-11 02:04:00+00:00,15.0,10.91,13.0,12.42,12.41,47.59359,-54.27349
2022-12-11 02:14:00+00:00,20.0,11.12,41.0,13.72,12.33,47.59359,-54.27349
2022-12-11 02:24:00+00:00,16.0,12.27,21.0,15.04,12.33,47.59359,-54.27349
2022-12-11 02:34:00+00:00,20.0,12.65,27.0,14.5,12.33,47.59359,-54.27349
2022-12-11 02:44:00+00:00,14.0,12.83,13.0,14.2,12.33,47.59359,-54.27349
2022-12-11 02:54:00+00:00,16.0,10.95,38.0,13.6,12.33,47.59359,-54.27349
2022-12-11 03:04:00+00:00,7.0,11.19,10.0,13.55,12.33,47.59359,-54.27349
2022-12-11 03:14:00+00:00,20.0,11.58,42.0,13.01,12.25,47.59359,-54.27349
2022-12-11 03:24:00+00:00,19.0,11.42,23.0,13.45,12.25,47.59359,-54.27349
2022-12-11 03:34:00+00:00,16.0,12.96,14.0,14.45,12.25,47.59359,-54.27349
2022-12-11 03:44:00+00:00,12.0,10.64,16.0,13.23,12.25,47.59359,-54.27349
2022-12-11 03:54:00+00:00,13.0,10.88,13.0,12.27,12.25,47.59359,-54.27349
2022-12-11 04:04:00+00:00,14.0,11.13,10.0,12.41,12.25,47.59359,-54.27349
2022-12-11 04:14:00+00:00,17.0,10.54,16.0,13.35,12.25,47.59359,-54.27349
2022-12-11 04:24:00+00:00,14.0,10.79,18.0,13.03,12.25,47.59359,-54.27349
2022-12-11 04:34:00+00:00,4.0,8.7,1.0,11.5,12.25,47.59359,-54.27349
2022-12-11 04:44:00+00:00,12.0,10.54,15.0,12.64,12.25,47.59359,-54.27349
2022-12-11 04:54:00+00:00,14.0,11.04,13.0,12.83,12.25,47.59359,-54.27349
2022-12-11 05:04:00+00:00,16.0,11.1,15.0,13.2,12.25,47.59359,-54.27349
2022-12-11 05:14:00+00:00,12.0,12.23,15.0,14.47,12.25,47.59359,-54.27349
2022-12-11 05:24:00+00:00,21.0,12.66,24.0,14.11,12.25,47.59359,-54.27349
2022-12-11 05:34:00+00:00,7.0,9.63,3.0,10.71,12.25,47.59359,-54.27349
2022-12-11 05:44:00+00:00,18.0,10.78,25.0,12.9,12.25,47.59359,-54.27349
2022-12-11 05:54:00+00:00,23.0,12.1,22.0,13.87,12.25,47.59359,-54.27349
2022-12-11 06:04:00+00:00,12.0,10.06,26.0,12.51,12.25,47.59359,-54.27349
2022-12-11 06:14:00+00:00,15.0,11.74,17.0,13.11,12.17,47.59359,-54.27349
2022-12-11 06:24:00+00:00,13.0,8.44,12.0,10.09,12.17,47.59359,-54.27349
2022-12-11 06:34:00+00:00,12.0,8.53,4.0,10.68,12.17,47.59359,-54.27349
2022-12-11 06:44:00+00:00,16.0,11.36,15.0,12.2,12.17,47.59359,-54.27349
2022-12-11 06:54:00+00:00,10.0,9.93,8.0,13.46,12.17,47.59359,-54.27349
2022-12-11 07:04:00+00:00,18.0,11.46,15.0,12.93,12.17,47.59359,-54.27349
2022-12-11 07:14:00+00:00,8.0,11.39,3.0,14.72,12.25,47.59359,-54.27349
2022-12-11 07:24:00+00:00,14.0,10.23,14.0,12.57,12.25,47.59359,-54.27349
2022-12-11 07:34:00+00:00,25.0,10.21,26.0,11.75,12.25,47.59359,-54.27349
2022-12-11 07:44:00+00:00,17.0,7.94,17.0,9.46,12.25,47.59359,-54.27349
2022-12-11 07:54:00+00:00,12.0,10.2,13.0,11.22,12.25,47.59359,-54.27349
2022-12-11 08:04:00+00:00,13.0,10.15,18.0,11.22,12.25,47.59359,-54.27349
2022-12-11 08:14:01+00:00,20.0,8.78,17.0,11.26,12.25,47.59359,-54.27349
2022-12-11 08:24:01+00:00,8.0,11.13,18.0,12.77,12.25,47.59359,-54.27349
2022-12-11 08:34:01+00:00,9.0,10.55,11.0,12.97,12.25,47.59359,-54.27349
2022-12-11 08:44:01+00:00,12.0,11.72,15.0,15.87,12.25,47.59359,-54.27349
2022-12-11 08:54:01+00:00,7.0,9.63,23.0,10.92,12.25,47.59359,-54.27349
2022-12-11 09:04:01+00:00,7.0,9.76,19.0,12.22,12.25,47.59359,-54.27349
2022-12-11 09:14:00+00:00,11.0,8.21,15.0,10.97,12.17,47.59359,-54.27349
2022-12-11 09:24:00+00:00,15.0,9.33,23.0,11.77,12.17,47.59359,-54.27349
2022-12-11 09:34:00+00:00,15.0,10.38,21.0,12.14,12.17,47.59359,-54.27349
2022-12-11 09:44:00+00:00,14.0,9.96,16.0,11.49,12.17,47.59359,-54.27349
2022-12-11 09:54:00+00:00,16.0,9.9,19.0,11.14,12.17,47.59359,-54.27349
2022-12-11 10:04:00+00:00,16.0,10.25,21.0,12.08,12.17,47.59359,-54.27349
2022-12-11 10:14:00+00:00,6.0,8.66,5.0,11.09,12.17,47.59359,-54.27349
2022-12-11 10:24:00+00:00,19.0,10.92,18.0,12.31,12.17,47.59359,-54.27349
2022-12-11 10:34:00+00:00,14.0,8.17,15.0,9.89,12.17,47.59359,-54.27349
2022-12-11 10:44:00+00:00,11.0,6.39,15.0,7.92,12.17,47.59359,-54.27349
2022-12-11 10:54:00+00:00,6.0,8.6,23.0,10.44,12.17,47.59359,-54.27349
2022-12-11 11:04:00+00:00,18.0,8.41,16.0,9.72,12.17,47.59359,-54.27349
2022-12-11 11:14:00+00:00,17.0,7.57,18.0,9.46,12.09,47.59359,-54.27349
2022-12-11 11:24:00+00:00,13.0,7.5,21.0,10.2,12.09,47.59359,-54.27349
2022-12-11 11:34:00+00:00,23.0,8.09,22.0,9.36,12.09,47.59359,-54.27349
2022-12-11 11:44:00+00:00,7.0,6.58,1.0,8.41,12.09,47.59359,-54.27349
2022-12-11 11:54:00+00:00,5.0,7.25,0.0,9.01,12.09,47.59359,-54.27349
2022-12-11 12:04:00+00:00,2.0,8.25,6.0,9.46,12.09,47.59359,-54.27349
2022-12-11 12:14:01+00:00,3.0,8.47,3.0,10.0,12.41,47.59359,-54.27349
2022-12-11 12:24:01+00:00,12.0,8.23,13.0,9.91,12.41,47.59359,-54.27349
2022-12-11 12:34:01+00:00,19.0,8.63,15.0,9.74,12.41,47.59359,-54.27349
2022-12-11 12:44:01+00:00,5.0,8.34,4.0,10.5,12.41,47.59359,-54.27349
2022-12-11 12:54:01+00:00,6.0,8.45,3.0,10.21,12.41,47.59359,-54.27349
2022-12-11 13:04:01+00:00,359.0,8.08,1.0,9.91,12.41,47.59359,-54.27349
2022-12-11 13:14:00+00:00,5.0,7.15,5.0,9.65,13.44,47.59359,-54.27349
2022-12-11 13:24:00+00:00,15.0,8.77,24.0,9.9,13.44,47.59359,-54.27349
2022-12-11 13:34:00+00:00,359.0,7.68,354.0,9.07,13.44,47.59359,-54.27349
2022-12-11 13:44:00+00:00,2.0,8.65,3.0,9.99,13.44,47.59359,-54.27349
2022-12-11 13:54:00+00:00,10.0,7.66,19.0,9.21,13.44,47.59359,-54.27349
2022-12-11 14:04:00+00:00,9.0,7.47,4.0,9.44,13.44,47.59359,-54.27349
2022-12-11 14:14:01+00:00,10.0,8.65,15.0,10.83,13.6,47.59359,-54.27349
2022-12-11 14:24:01+00:00,6.0,6.94,1.0,8.01,13.6,47.59359,-54.27349
2022-12-11 14:34:01+00:00,355.0,8.5,356.0,9.56,13.6,47.59359,-54.27349
2022-12-11 14:44:01+00:00,4.0,7.91,352.0,9.37,13.6,47.59359,-54.27349
2022-12-11 14:54:01+00:00,0.0,7.9,1.0,9.08,13.6,47.59359,-54.27349
2022-12-11 15:04:01+00:00,2.0,7.58,1.0,9.18,13.6,47.59359,-54.27349
2022-12-11 15:14:00+00:00,9.0,6.83,1.0,8.81,13.6,47.59359,-54.27349
2022-12-11 15:24:00+00:00,340.0,7.25,336.0,8.98,13.6,47.59359,-54.27349
2022-12-11 15:34:00+00:00,6.0,8.53,5.0,10.82,13.6,47.59359,-54.27349
2022-12-11 15:44:00+00:00,357.0,7.95,355.0,9.43,13.6,47.59359,-54.27349
2022-12-11 15:54:00+00:00,6.0,8.26,3.0,10.15,13.6,47.59359,-54.27349
2022-12-11 16:04:00+00:00,358.0,9.38,358.0,10.65,13.6,47.59359,-54.27349
2022-12-11 16:14:01+00:00,4.0,9.18,26.0,10.91,13.6,47.59359,-54.27349
2022-12-11 16:24:01+00:00,356.0,8.33,356.0,9.03,13.6,47.59359,-54.27349
2022-12-11 16:34:01+00:00,349.0,7.48,334.0,8.56,13.6,47.59359,-54.27349
2022-12-11 16:44:01+00:00,358.0,8.61,15.0,9.91,13.6,47.59359,-54.27349
2022-12-11 16:54:01+00:00,7.0,7.1,37.0,8.34,13.6,47.59359,-54.27349
2022-12-11 17:04:01+00:00,10.0,7.6,0.0,9.0,13.6,47.59359,-54.27349
2022-12-11 17:14:01+00:00,354.0,6.56,331.0,8.52,13.6,47.59359,-54.27349
2022-12-11 17:24:01+00:00,344.0,8.08,327.0,10.11,13.6,47.59359,-54.27349
2022-12-11 17:34:01+00:00,337.0,9.1,328.0,10.66,13.6,47.59359,-54.27349
2022-12-11 17:44:01+00:00,359.0,8.33,332.0,9.97,13.6,47.59359,-54.27349
2022-12-11 17:54:01+00:00,11.0,7.97,29.0,9.54,13.6,47.59359,-54.27349
2022-12-11 18:04:01+00:00,12.0,6.97,29.0,8.7,13.6,47.59359,-54.27349
2022-12-11 18:14:00+00:00,27.0,7.13,41.0,8.6,13.37,47.59359,-54.27349
2022-12-11 18:24:00+00:00,26.0,8.26,35.0,9.87,13.37,47.59359,-54.27349
2022-12-11 18:34:00+00:00,34.0,7.72,37.0,9.31,13.37,47.59359,-54.27349
2022-12-11 18:44:00+00:00,1.0,6.94,3.0,8.54,13.37,47.59359,-54.27349
2022-12-11 18:54:00+00:00,15.0,6.48,359.0,8.7,13.37,47.59359,-54.27349
2022-12-11 19:04:00+00:00,18.0,6.72,30.0,8.02,13.37,47.59359,-54.27349
2022-12-11 19:14:00+00:00,33.0,7.28,36.0,9.12,12.89,47.59359,-54.27349
2022-12-11 19:24:00+00:00,2.0,7.93,3.0,9.64,12.89,47.59359,-54.27349
2022-12-11 19:34:00+00:00,6.0,7.99,5.0,9.29,12.89,47.59359,-54.27349
2022-12-11 19:44:00+00:00,1.0,6.85,1.0,7.9,12.89,47.59359,-54.27349
2022-12-11 19:54:00+00:00,1.0,6.76,359.0,7.96,12.89,47.59359,-54.27349
2022-12-11 20:04:00+00:00,28.0,8.7,23.0,10.14,12.89,47.59359,-54.27349
2022-12-11 21:14:00+00:00,28.0,7.32,32.0,9.76,12.41,47.59359,-54.27349
2022-12-11 21:24:00+00:00,38.0,8.71,35.0,9.47,12.41,47.59359,-54.27349
2022-12-11 21:34:00+00:00,4.0,7.16,4.0,8.32,12.41,47.59359,-54.27349
2022-12-11 21:44:00+00:00,33.0,6.6,42.0,8.26,12.41,47.59359,-54.27349
2022-12-11 21:54:00+00:00,36.0,6.65,45.0,8.39,12.41,47.59359,-54.27349
2022-12-11 22:04:00+00:00,355.0,7.0,327.0,8.03,12.41,47.59359,-54.27349
2022-12-11 22:14:00+00:00,22.0,7.69,35.0,9.74,12.33,47.59359,-54.27349
2022-12-11 22:24:00+00:00,0.0,7.91,19.0,10.65,12.33,47.59359,-54.27349
2022-12-11 22:34:00+00:00,28.0,7.6,36.0,9.63,12.33,47.59359,-54.27349
2022-12-11 22:44:00+00:00,3.0,5.99,25.0,7.03,12.33,47.59359,-54.27349
2022-12-11 22:54:00+00:00,40.0,6.58,50.0,8.14,12.33,47.59359,-54.27349
2022-12-11 23:04:00+00:00,27.0,7.94,33.0,9.79,12.33,47.59359,-54.27349
2022-12-11 23:14:01+00:00,5.0,7.05,7.0,10.02,12.33,47.59359,-54.27349
2022-12-11 23:24:01+00:00,34.0,7.87,34.0,10.09,12.33,47.59359,-54.27349
2022-12-11 23:34:01+00:00,12.0,6.21,45.0,7.83,12.33,47.59359,-54.27349
2022-12-11 23:44:01+00:00,32.0,7.51,33.0,9.47,12.33,47.59359,-54.27349
2022-12-11 23:54:01+00:00,13.0,6.77,35.0,9.69,12.33,47.59359,-54.27349
